Location: �couen
(49.0206°N, 2.3831°E)
Time: 06:02:39
(UTC+00:00)

Cosmos 1758 - Pass Details

Date: 04 June 2022
Orbit: 538 x 557 km, 82.5° (Epoch: 03 July)

Event Time Altitude Azimuth Distance (km) Brightness Sun altitude
Rises 23:07:43 0° 342° (NNW) 2,723 8.5 -17.9°
Reaches altitude 10° 23:10:00 10° 333° (NNW) 1,828 7.1 -17.9°
Maximum altitude 23:13:39 34° 268° (W) 918 4.5 -18.0°
Enters shadow 23:15:08 25° 227° (SW) 1,122 4.6 -18.1°
